Year,Month,Day,Hour,Minute,Value (Times are PST for temperature in C)
2016,08,27,00,00,23.70
2016,08,27,00,01,23.70
2016,08,27,00,02,23.70
2016,08,27,00,03,23.70
2016,08,27,00,04,23.70
2016,08,27,00,05,23.60
2016,08,27,00,06,23.60
2016,08,27,00,07,23.60
2016,08,27,00,08,23.60
2016,08,27,00,09,23.60
2016,08,27,00,10,23.60
2016,08,27,00,11,23.60
2016,08,27,00,12,23.60
2016,08,27,00,13,23.60
2016,08,27,00,14,23.60
2016,08,27,00,15,23.60
2016,08,27,00,16,23.60
2016,08,27,00,17,23.50
2016,08,27,00,18,23.50
2016,08,27,00,19,23.50
2016,08,27,00,20,23.50
2016,08,27,00,21,23.40
2016,08,27,00,22,23.40
2016,08,27,00,23,23.40
2016,08,27,00,24,23.30
2016,08,27,00,25,23.30
2016,08,27,00,26,23.30
2016,08,27,00,27,23.30
2016,08,27,00,28,23.20
2016,08,27,00,29,23.10
2016,08,27,00,30,23.00
2016,08,27,00,31,22.80
2016,08,27,00,32,22.80
2016,08,27,00,33,22.60
2016,08,27,00,34,22.50
2016,08,27,00,35,22.40
2016,08,27,00,36,22.30
2016,08,27,00,37,22.20
2016,08,27,00,38,22.00
2016,08,27,00,39,21.90
2016,08,27,00,40,21.90
2016,08,27,00,41,21.80
2016,08,27,00,42,21.80
2016,08,27,00,43,21.70
2016,08,27,00,44,21.70
2016,08,27,00,45,21.70
2016,08,27,00,46,21.60
2016,08,27,00,47,21.60
2016,08,27,00,48,21.50
2016,08,27,00,49,21.40
2016,08,27,00,50,21.40
2016,08,27,00,51,21.40
2016,08,27,00,52,21.40
2016,08,27,00,53,21.30
2016,08,27,00,54,21.30
2016,08,27,00,55,21.20
2016,08,27,00,56,21.20
2016,08,27,00,57,21.20
2016,08,27,00,58,21.10
2016,08,27,00,59,21.10
2016,08,27,01,00,21.10
2016,08,27,01,01,21.00
2016,08,27,01,02,21.00
2016,08,27,01,03,21.00
2016,08,27,01,04,20.90
2016,08,27,01,05,20.80
2016,08,27,01,06,20.80
2016,08,27,01,07,20.80
2016,08,27,01,08,20.80
2016,08,27,01,09,20.70
2016,08,27,01,10,20.70
2016,08,27,01,11,20.60
2016,08,27,01,12,20.60
2016,08,27,01,13,20.60
2016,08,27,01,14,20.50
2016,08,27,01,15,20.50
2016,08,27,01,16,20.40
2016,08,27,01,17,20.40
2016,08,27,01,18,20.40
2016,08,27,01,19,20.40
2016,08,27,01,20,20.40
2016,08,27,01,21,20.30
2016,08,27,01,22,20.30
2016,08,27,01,23,20.20
2016,08,27,01,24,20.20
2016,08,27,01,25,20.20
2016,08,27,01,26,20.20
2016,08,27,01,27,20.10
2016,08,27,01,28,20.10
2016,08,27,01,29,20.10
2016,08,27,01,30,20.00
2016,08,27,01,31,20.00
2016,08,27,01,32,19.90
2016,08,27,01,33,19.90
2016,08,27,01,34,19.90
2016,08,27,01,35,19.90
2016,08,27,01,36,19.90
2016,08,27,01,37,19.90
2016,08,27,01,38,19.80
2016,08,27,01,39,19.80
2016,08,27,01,40,19.80
2016,08,27,01,41,19.70
2016,08,27,01,42,19.70
2016,08,27,01,43,19.70
2016,08,27,01,44,19.70
2016,08,27,01,45,19.70
2016,08,27,01,46,19.60
2016,08,27,01,47,19.60
2016,08,27,01,48,19.60
2016,08,27,01,49,19.60
2016,08,27,01,50,19.60
2016,08,27,01,51,19.70
2016,08,27,01,52,19.70
2016,08,27,01,53,19.70
2016,08,27,01,54,19.70
2016,08,27,01,55,19.70
2016,08,27,01,56,19.70
2016,08,27,01,57,19.70
2016,08,27,01,58,19.70
2016,08,27,01,59,19.70
2016,08,27,02,00,19.70
2016,08,27,02,01,19.70
2016,08,27,02,02,19.70
2016,08,27,02,03,19.70
2016,08,27,02,04,19.70
2016,08,27,02,05,19.70
2016,08,27,02,06,19.70
2016,08,27,02,07,19.70
2016,08,27,02,08,19.70
2016,08,27,02,09,19.70
2016,08,27,02,10,19.70
2016,08,27,02,11,19.70
2016,08,27,02,12,19.70
2016,08,27,02,13,19.70
2016,08,27,02,14,19.70
2016,08,27,02,15,19.60
2016,08,27,02,16,19.60
2016,08,27,02,17,19.60
2016,08,27,02,18,19.60
2016,08,27,02,19,19.50
2016,08,27,02,20,19.50
2016,08,27,02,21,19.50
2016,08,27,02,22,19.50
2016,08,27,02,23,19.40
2016,08,27,02,24,19.40
2016,08,27,02,25,19.40
2016,08,27,02,26,19.40
2016,08,27,02,27,19.30
2016,08,27,02,28,19.30
2016,08,27,02,29,19.30
2016,08,27,02,30,19.20
2016,08,27,02,31,19.20
2016,08,27,02,32,19.20
2016,08,27,02,33,19.20
2016,08,27,02,34,19.20
2016,08,27,02,35,19.20
2016,08,27,02,36,19.20
2016,08,27,02,37,19.20
2016,08,27,02,38,19.10
2016,08,27,02,39,19.10
2016,08,27,02,40,19.10
2016,08,27,02,41,19.10
2016,08,27,02,42,19.10
2016,08,27,02,43,19.10
2016,08,27,02,44,19.00
2016,08,27,02,45,19.00
2016,08,27,02,46,19.00
2016,08,27,02,47,19.00
2016,08,27,02,48,19.00
2016,08,27,02,49,19.00
2016,08,27,02,50,19.10
2016,08,27,02,51,19.10
2016,08,27,02,52,19.10
2016,08,27,02,53,19.00
2016,08,27,02,54,19.00
2016,08,27,02,55,19.00
2016,08,27,02,56,19.00
2016,08,27,02,57,19.00
2016,08,27,02,58,19.00
2016,08,27,02,59,19.10
2016,08,27,03,00,19.00
2016,08,27,03,01,19.10
2016,08,27,03,02,19.00
2016,08,27,03,03,19.10
2016,08,27,03,04,19.10
2016,08,27,03,05,19.10
2016,08,27,03,06,19.10
2016,08,27,03,07,19.00
2016,08,27,03,08,19.00
2016,08,27,03,09,19.00
2016,08,27,03,10,18.90
2016,08,27,03,11,18.90
2016,08,27,03,12,18.90
2016,08,27,03,13,18.90
2016,08,27,03,14,18.90
2016,08,27,03,15,18.80
2016,08,27,03,16,18.80
2016,08,27,03,17,18.80
2016,08,27,03,18,18.80
2016,08,27,03,19,18.90
2016,08,27,03,20,18.90
2016,08,27,03,21,18.90
2016,08,27,03,22,19.00
2016,08,27,03,23,19.00
2016,08,27,03,24,19.10
2016,08,27,03,25,19.10
2016,08,27,03,26,19.10
2016,08,27,03,27,19.10
2016,08,27,03,28,19.10
2016,08,27,03,29,19.10
2016,08,27,03,30,19.10
2016,08,27,03,31,19.10
2016,08,27,03,32,19.10
2016,08,27,03,33,19.10
2016,08,27,03,34,19.10
2016,08,27,03,35,19.10
2016,08,27,03,36,19.10
2016,08,27,03,37,19.10
2016,08,27,03,38,19.10
2016,08,27,03,39,19.10
2016,08,27,03,40,19.20
2016,08,27,03,41,19.20
2016,08,27,03,42,19.30
2016,08,27,03,43,19.30
2016,08,27,03,44,19.30
2016,08,27,03,45,19.40
2016,08,27,03,46,19.40
2016,08,27,03,47,19.40
2016,08,27,03,48,19.40
2016,08,27,03,49,19.40
2016,08,27,03,50,19.40
2016,08,27,03,51,19.30
2016,08,27,03,52,19.30
2016,08,27,03,53,19.30
2016,08,27,03,54,19.30
2016,08,27,03,55,19.20
2016,08,27,03,56,19.20
2016,08,27,03,57,19.20
2016,08,27,03,58,19.10
2016,08,27,03,59,19.00
2016,08,27,04,00,18.90
2016,08,27,04,01,18.90
2016,08,27,04,02,18.80
2016,08,27,04,03,18.80
2016,08,27,04,04,18.80
2016,08,27,04,05,18.70
2016,08,27,04,06,18.70
2016,08,27,04,07,18.60
2016,08,27,04,08,18.60
2016,08,27,04,09,18.50
2016,08,27,04,10,18.40
2016,08,27,04,11,18.40
2016,08,27,04,12,18.30
2016,08,27,04,13,18.20
2016,08,27,04,14,18.20
2016,08,27,04,15,18.10
2016,08,27,04,16,18.00
2016,08,27,04,17,17.90
2016,08,27,04,18,17.80
2016,08,27,04,19,17.80
2016,08,27,04,20,17.70
2016,08,27,04,21,17.60
2016,08,27,04,22,17.60
2016,08,27,04,23,17.50
2016,08,27,04,24,17.50
2016,08,27,04,25,17.40
2016,08,27,04,26,17.40
2016,08,27,04,27,17.30
2016,08,27,04,28,17.30
2016,08,27,04,29,17.30
2016,08,27,04,30,17.20
2016,08,27,04,31,17.20
2016,08,27,04,32,17.20
2016,08,27,04,33,17.10
2016,08,27,04,34,17.00
2016,08,27,04,35,17.00
2016,08,27,04,36,17.00
2016,08,27,04,37,16.90
2016,08,27,04,38,16.90
2016,08,27,04,39,16.90
2016,08,27,04,40,16.90
2016,08,27,04,41,16.80
2016,08,27,04,42,16.80
2016,08,27,04,43,16.80
2016,08,27,04,44,16.80
2016,08,27,04,45,16.80
2016,08,27,04,46,16.80
2016,08,27,04,47,16.70
2016,08,27,04,48,16.70
2016,08,27,04,49,16.70
2016,08,27,04,50,16.70
2016,08,27,04,51,16.60
2016,08,27,04,52,16.60
2016,08,27,04,53,16.60
2016,08,27,04,54,16.50
2016,08,27,04,55,16.50
2016,08,27,04,56,16.40
2016,08,27,04,57,16.40
2016,08,27,04,58,16.40
2016,08,27,04,59,16.30
2016,08,27,05,00,16.30
2016,08,27,05,01,16.20
2016,08,27,05,02,16.20
2016,08,27,05,03,16.20
2016,08,27,05,04,16.20
2016,08,27,05,05,16.20
2016,08,27,05,06,16.20
2016,08,27,05,07,16.20
2016,08,27,05,08,16.10
2016,08,27,05,09,16.30
2016,08,27,05,10,16.40
2016,08,27,05,11,16.50
2016,08,27,05,12,16.60
2016,08,27,05,13,16.80
2016,08,27,05,14,16.90
2016,08,27,05,15,17.20
2016,08,27,05,16,17.40
2016,08,27,05,17,17.70
2016,08,27,05,18,17.90
2016,08,27,05,19,18.10
2016,08,27,05,20,18.40
2016,08,27,05,21,18.80
2016,08,27,05,22,19.00
2016,08,27,05,23,19.10
2016,08,27,05,24,19.30
2016,08,27,05,25,19.50
2016,08,27,05,26,19.60
2016,08,27,05,27,19.80
2016,08,27,05,28,19.80
2016,08,27,05,29,19.90
2016,08,27,05,30,19.90
2016,08,27,05,31,20.00
2016,08,27,05,32,20.00
2016,08,27,05,33,20.00
2016,08,27,05,34,20.10
2016,08,27,05,35,20.20
2016,08,27,05,36,20.20
2016,08,27,05,37,20.20
2016,08,27,05,38,20.30
2016,08,27,05,39,20.30
2016,08,27,05,40,20.30
2016,08,27,05,41,20.30
2016,08,27,05,42,20.30
2016,08,27,05,43,20.40
2016,08,27,05,44,20.30
2016,08,27,05,45,20.30
2016,08,27,05,46,20.30
2016,08,27,05,47,20.20
2016,08,27,05,48,20.20
2016,08,27,05,49,20.20
2016,08,27,05,50,20.20
2016,08,27,05,51,20.10
2016,08,27,05,52,20.10
2016,08,27,05,53,20.10
2016,08,27,05,54,20.00
2016,08,27,05,55,20.00
2016,08,27,05,56,19.90
2016,08,27,05,57,19.80
2016,08,27,05,58,19.80
2016,08,27,05,59,19.70
2016,08,27,06,00,19.60
2016,08,27,06,01,19.60
2016,08,27,06,02,19.50
2016,08,27,06,03,19.40
2016,08,27,06,04,19.40
2016,08,27,06,05,19.30
2016,08,27,06,06,19.30
2016,08,27,06,07,19.30
2016,08,27,06,08,19.30
2016,08,27,06,09,19.30
2016,08,27,06,10,19.30
2016,08,27,06,11,19.30
2016,08,27,06,12,19.30
2016,08,27,06,13,19.20
2016,08,27,06,14,19.20
2016,08,27,06,15,19.10
2016,08,27,06,16,19.10
2016,08,27,06,17,19.00
2016,08,27,06,18,18.90
2016,08,27,06,19,18.80
2016,08,27,06,20,18.70
2016,08,27,06,21,18.60
2016,08,27,06,22,18.50
2016,08,27,06,23,18.40
2016,08,27,06,24,18.30
2016,08,27,06,25,18.30
2016,08,27,06,26,18.20
2016,08,27,06,27,18.10
2016,08,27,06,28,18.00
2016,08,27,06,29,17.90
2016,08,27,06,30,17.90
2016,08,27,06,31,17.80
2016,08,27,06,32,17.70
2016,08,27,06,33,17.60
2016,08,27,06,34,17.60
2016,08,27,06,35,17.50
2016,08,27,06,36,17.50
2016,08,27,06,37,17.40
2016,08,27,06,38,17.40
2016,08,27,06,39,17.30
2016,08,27,06,40,17.30
2016,08,27,06,41,17.30
2016,08,27,06,42,17.30
2016,08,27,06,43,17.30
2016,08,27,06,44,17.30
2016,08,27,06,45,17.30
2016,08,27,06,46,17.30
2016,08,27,06,47,17.30
2016,08,27,06,48,17.30
2016,08,27,06,49,17.30
2016,08,27,06,50,17.20
2016,08,27,06,51,17.30
2016,08,27,06,52,17.20
2016,08,27,06,53,17.20
2016,08,27,06,54,17.20
2016,08,27,06,55,17.20
2016,08,27,06,56,17.20
2016,08,27,06,57,17.20
2016,08,27,06,58,17.20
2016,08,27,06,59,17.20
2016,08,27,07,00,17.20
2016,08,27,07,01,17.10
2016,08,27,07,02,17.10
2016,08,27,07,03,17.10
2016,08,27,07,04,17.10
2016,08,27,07,05,17.10
2016,08,27,07,06,17.10
2016,08,27,07,07,17.10
2016,08,27,07,08,17.00
2016,08,27,07,09,17.00
2016,08,27,07,10,17.00
2016,08,27,07,11,17.00
2016,08,27,07,12,17.00
2016,08,27,07,13,17.00
2016,08,27,07,14,17.00
2016,08,27,07,15,17.00
2016,08,27,07,16,17.00
2016,08,27,07,17,17.00
2016,08,27,07,18,17.00
2016,08,27,07,19,16.90
2016,08,27,07,20,16.90
2016,08,27,07,21,16.90
2016,08,27,07,22,16.90
2016,08,27,07,23,16.90
2016,08,27,07,24,16.90
2016,08,27,07,25,16.90
2016,08,27,07,26,16.90
2016,08,27,07,27,16.90
2016,08,27,07,28,16.90
2016,08,27,07,29,16.90
2016,08,27,07,30,16.90
2016,08,27,07,31,16.90
2016,08,27,07,32,16.90
2016,08,27,07,33,16.90
2016,08,27,07,34,16.90
2016,08,27,07,35,16.90
2016,08,27,07,36,16.90
2016,08,27,07,37,16.90
2016,08,27,07,38,16.90
2016,08,27,07,39,16.90
2016,08,27,07,40,16.90
2016,08,27,07,41,16.80
2016,08,27,07,42,16.80
2016,08,27,07,43,16.80
2016,08,27,07,44,16.80
2016,08,27,07,45,16.80
2016,08,27,07,46,16.80
2016,08,27,07,47,16.80
2016,08,27,07,48,16.80
2016,08,27,07,49,16.90
2016,08,27,07,50,16.90
2016,08,27,07,51,16.90
2016,08,27,07,52,16.90
2016,08,27,07,53,16.90
2016,08,27,07,54,16.90
2016,08,27,07,55,16.90
2016,08,27,07,56,16.90
2016,08,27,07,57,16.90
2016,08,27,07,58,16.90
2016,08,27,07,59,17.00
2016,08,27,08,00,17.00
2016,08,27,08,01,17.00
2016,08,27,08,02,17.00
2016,08,27,08,03,17.10
2016,08,27,08,04,17.10
2016,08,27,08,05,17.10
2016,08,27,08,06,17.10
2016,08,27,08,07,17.10
2016,08,27,08,08,17.10
2016,08,27,08,09,17.10
2016,08,27,08,10,17.10
2016,08,27,08,11,17.20
2016,08,27,08,12,17.20
2016,08,27,08,13,17.20
2016,08,27,08,14,17.20
2016,08,27,08,15,17.20
2016,08,27,08,16,17.20
2016,08,27,08,17,17.20
2016,08,27,08,18,17.20
2016,08,27,08,19,17.20
2016,08,27,08,20,17.20
2016,08,27,08,21,17.30
2016,08,27,08,22,17.20
2016,08,27,08,23,17.30
2016,08,27,08,24,17.30
2016,08,27,08,25,17.30
2016,08,27,08,26,17.30
2016,08,27,08,27,17.30
2016,08,27,08,28,17.40
2016,08,27,08,29,17.40
2016,08,27,08,30,17.40
2016,08,27,08,31,17.40
2016,08,27,08,32,17.40
2016,08,27,08,33,17.40
2016,08,27,08,34,17.40
2016,08,27,08,35,17.40
2016,08,27,08,36,17.40
2016,08,27,08,37,17.40
2016,08,27,08,38,17.50
2016,08,27,08,39,17.50
2016,08,27,08,40,17.50
2016,08,27,08,41,17.40
2016,08,27,08,42,17.40
2016,08,27,08,43,17.40
2016,08,27,08,44,17.40
2016,08,27,08,45,17.40
2016,08,27,08,46,17.50
2016,08,27,08,47,17.50
2016,08,27,08,48,17.50
2016,08,27,08,49,17.50
2016,08,27,08,50,17.60
2016,08,27,08,51,17.60
2016,08,27,08,52,17.60
2016,08,27,08,53,17.60
2016,08,27,08,54,17.60
2016,08,27,08,55,17.70
2016,08,27,08,56,17.80
2016,08,27,08,57,17.80
2016,08,27,08,58,17.80
2016,08,27,08,59,17.90
2016,08,27,09,00,17.90
2016,08,27,09,01,17.90
2016,08,27,09,02,17.90
2016,08,27,09,03,18.00
2016,08,27,09,04,18.10
2016,08,27,09,05,18.10
2016,08,27,09,06,18.10
2016,08,27,09,07,18.10
2016,08,27,09,08,18.10
2016,08,27,09,09,18.10
2016,08,27,09,10,18.00
2016,08,27,09,11,18.00
2016,08,27,09,12,17.90
2016,08,27,09,13,17.90
2016,08,27,09,14,17.90
2016,08,27,09,15,17.80
2016,08,27,09,16,17.80
2016,08,27,09,17,17.80
2016,08,27,09,18,17.80
2016,08,27,09,19,17.80
2016,08,27,09,20,17.90
2016,08,27,09,21,17.90
2016,08,27,09,22,17.90
2016,08,27,09,23,17.90
2016,08,27,09,24,17.90
2016,08,27,09,25,17.90
2016,08,27,09,26,17.90
2016,08,27,09,27,17.90
2016,08,27,09,28,17.80
2016,08,27,09,29,17.80
2016,08,27,09,30,17.80
2016,08,27,09,31,17.80
2016,08,27,09,32,17.80
2016,08,27,09,33,17.80
2016,08,27,09,34,17.80
2016,08,27,09,35,17.80
2016,08,27,09,36,17.80
2016,08,27,09,37,17.80
2016,08,27,09,38,17.80
2016,08,27,09,39,17.80
2016,08,27,09,40,17.80
2016,08,27,09,41,17.90
2016,08,27,09,42,17.90
2016,08,27,09,43,17.90
2016,08,27,09,44,17.90
2016,08,27,09,45,17.90
2016,08,27,09,46,18.00
2016,08,27,09,47,18.00
2016,08,27,09,48,18.00
2016,08,27,09,49,18.00
2016,08,27,09,50,18.00
2016,08,27,09,51,18.00
2016,08,27,09,52,18.10
2016,08,27,09,53,18.10
2016,08,27,09,54,18.10
2016,08,27,09,55,18.10
2016,08,27,09,56,18.10
2016,08,27,09,57,18.20
2016,08,27,09,58,18.30
2016,08,27,09,59,18.30
2016,08,27,10,00,18.30
2016,08,27,10,01,18.20
2016,08,27,10,02,18.20
2016,08,27,10,03,18.20
2016,08,27,10,04,18.20
2016,08,27,10,05,18.20
2016,08,27,10,06,18.30
2016,08,27,10,07,18.30
2016,08,27,10,08,18.30
2016,08,27,10,09,18.30
2016,08,27,10,10,18.30
2016,08,27,10,11,18.40
2016,08,27,10,12,18.40
2016,08,27,10,13,18.40
2016,08,27,10,14,18.30
2016,08,27,10,15,18.30
2016,08,27,10,16,18.30
2016,08,27,10,17,18.20
2016,08,27,10,18,18.10
2016,08,27,10,19,18.10
2016,08,27,10,20,18.10
2016,08,27,10,21,18.10
2016,08,27,10,22,18.10
2016,08,27,10,23,18.10
2016,08,27,10,24,18.10
2016,08,27,10,25,18.10
2016,08,27,10,26,18.10
2016,08,27,10,27,18.10
2016,08,27,10,28,18.10
2016,08,27,10,29,18.10
2016,08,27,10,30,18.10
2016,08,27,10,31,18.10
2016,08,27,10,32,18.10
2016,08,27,10,33,18.10
2016,08,27,10,34,18.00
2016,08,27,10,35,17.90
2016,08,27,10,36,17.90
2016,08,27,10,37,17.90
2016,08,27,10,38,17.90
2016,08,27,10,39,17.80
2016,08,27,10,40,17.80
2016,08,27,10,41,17.80
2016,08,27,10,42,17.80
2016,08,27,10,43,17.90
2016,08,27,10,44,17.90
2016,08,27,10,45,17.90
2016,08,27,10,46,17.90
2016,08,27,10,47,18.00
2016,08,27,10,48,18.10
2016,08,27,10,49,18.20
2016,08,27,10,50,18.20
2016,08,27,10,51,18.20
2016,08,27,10,52,18.20
2016,08,27,10,53,18.30
2016,08,27,10,54,18.30
2016,08,27,10,55,18.40
2016,08,27,10,56,18.50
2016,08,27,10,57,18.60
2016,08,27,10,58,18.60
2016,08,27,10,59,18.70
2016,08,27,11,00,18.70
2016,08,27,11,01,18.70
2016,08,27,11,02,18.70
2016,08,27,11,03,18.70
2016,08,27,11,04,18.70
2016,08,27,11,05,18.80
2016,08,27,11,06,18.80
2016,08,27,11,07,18.90
2016,08,27,11,08,18.90
2016,08,27,11,09,18.90
2016,08,27,11,10,19.10
2016,08,27,11,11,19.10
2016,08,27,11,12,19.10
2016,08,27,11,13,19.10
2016,08,27,11,14,19.10
2016,08,27,11,15,19.10
2016,08,27,11,16,19.10
2016,08,27,11,17,19.10
2016,08,27,11,18,19.20
2016,08,27,11,19,19.20
2016,08,27,11,20,19.30
2016,08,27,11,21,19.40
2016,08,27,11,22,19.40
2016,08,27,11,23,19.40
2016,08,27,11,24,19.40
2016,08,27,11,25,19.40
2016,08,27,11,26,19.40
2016,08,27,11,27,19.40
2016,08,27,11,28,19.40
2016,08,27,11,29,19.40
2016,08,27,11,30,19.40
2016,08,27,11,31,19.50
2016,08,27,11,32,19.50
2016,08,27,11,33,19.50
2016,08,27,11,34,19.50
2016,08,27,11,35,19.50
2016,08,27,11,36,19.50
2016,08,27,11,37,19.40
2016,08,27,11,38,19.50
2016,08,27,11,39,19.50
2016,08,27,11,40,19.40
2016,08,27,11,41,19.40
2016,08,27,11,42,19.40
2016,08,27,11,43,19.40
2016,08,27,11,44,19.40
2016,08,27,11,45,19.40
2016,08,27,11,46,19.40
2016,08,27,11,47,19.40
2016,08,27,11,48,19.40
2016,08,27,11,49,19.50
2016,08,27,11,50,19.60
2016,08,27,11,51,19.60
2016,08,27,11,52,19.60
2016,08,27,11,53,19.50
2016,08,27,11,54,19.50
2016,08,27,11,55,19.50
2016,08,27,11,56,19.40
2016,08,27,11,57,19.40
2016,08,27,11,58,19.40
2016,08,27,11,59,19.40
2016,08,27,12,00,19.40
2016,08,27,12,01,19.50
2016,08,27,12,02,19.50
2016,08,27,12,03,19.50
2016,08,27,12,04,19.40
2016,08,27,12,05,19.40
2016,08,27,12,06,19.40
2016,08,27,12,07,19.50
2016,08,27,12,08,19.60
2016,08,27,12,09,19.60
2016,08,27,12,10,19.50
2016,08,27,12,11,19.30
2016,08,27,12,12,19.20
2016,08,27,12,13,19.10
2016,08,27,12,14,19.00
2016,08,27,12,15,18.90
2016,08,27,12,16,18.90
2016,08,27,12,17,18.90
2016,08,27,12,18,18.90
2016,08,27,12,19,18.90
2016,08,27,12,20,18.80
2016,08,27,12,21,18.80
2016,08,27,12,22,18.80
2016,08,27,12,23,18.80
2016,08,27,12,24,18.80
2016,08,27,12,25,18.80
2016,08,27,12,26,18.80
2016,08,27,12,27,18.80
2016,08,27,12,28,18.80
2016,08,27,12,29,18.80
2016,08,27,12,30,18.80
2016,08,27,12,31,18.80
2016,08,27,12,32,18.80
2016,08,27,12,33,18.80
2016,08,27,12,34,18.80
2016,08,27,13,59,18.90
2016,08,27,14,00,18.90
2016,08,27,14,01,18.90
2016,08,27,14,02,18.90
2016,08,27,14,03,19.00
2016,08,27,14,04,19.10
2016,08,27,14,05,19.20
2016,08,27,14,06,19.20
2016,08,27,14,07,19.30
2016,08,27,14,08,19.40
2016,08,27,14,09,19.40
2016,08,27,14,10,19.30
2016,08,27,14,11,19.30
2016,08,27,14,12,19.30
2016,08,27,14,13,19.30
2016,08,27,14,14,19.30
2016,08,27,14,15,19.30
2016,08,27,14,16,19.30
2016,08,27,14,17,19.30
2016,08,27,14,18,19.20
2016,08,27,14,19,19.10
2016,08,27,14,20,19.00
2016,08,27,14,21,19.00
2016,08,27,14,22,19.00
2016,08,27,14,23,19.10
2016,08,27,14,24,19.10
2016,08,27,14,25,19.00
2016,08,27,14,26,18.90
2016,08,27,14,27,18.80
2016,08,27,14,28,18.70
2016,08,27,14,29,18.80
2016,08,27,14,30,18.80
2016,08,27,14,31,18.80
2016,08,27,14,32,18.80
2016,08,27,14,33,18.80
2016,08,27,14,34,18.90
2016,08,27,14,35,18.90
2016,08,27,14,36,18.90
2016,08,27,14,37,18.90
2016,08,27,14,38,19.00
2016,08,27,14,39,19.10
2016,08,27,14,40,19.10
2016,08,27,14,41,19.00
2016,08,27,14,42,19.00
2016,08,27,14,43,19.10
2016,08,27,14,44,19.10
2016,08,27,14,45,19.10
2016,08,27,14,46,19.10
2016,08,27,14,47,19.10
2016,08,27,14,48,19.10
2016,08,27,14,49,19.20
2016,08,27,14,50,19.20
2016,08,27,14,51,19.20
2016,08,27,14,52,19.30
2016,08,27,14,53,19.30
2016,08,27,14,54,19.20
2016,08,27,14,55,19.20
2016,08,27,14,56,19.20
2016,08,27,14,57,19.20
2016,08,27,14,58,19.20
2016,08,27,14,59,19.20
2016,08,27,15,00,19.20
2016,08,27,15,01,19.20
2016,08,27,15,02,19.20
2016,08,27,15,03,19.20
2016,08,27,15,04,19.30
2016,08,27,15,05,19.20
2016,08,27,15,06,19.10
2016,08,27,15,07,19.10
2016,08,27,15,08,19.10
2016,08,27,15,09,19.00
2016,08,27,15,10,19.10
2016,08,27,15,11,19.20
2016,08,27,15,12,19.20
2016,08,27,15,13,19.20
2016,08,27,15,14,19.20
2016,08,27,15,15,19.20
2016,08,27,15,16,19.20
2016,08,27,15,17,19.30
2016,08,27,15,18,19.40
2016,08,27,15,19,19.40
2016,08,27,15,20,19.40
2016,08,27,15,21,19.40
2016,08,27,15,22,19.40
2016,08,27,15,23,19.30
2016,08,27,15,24,19.30
2016,08,27,15,25,19.30
2016,08,27,15,26,19.20
2016,08,27,15,27,19.20
2016,08,27,15,28,19.20
2016,08,27,15,29,19.20
2016,08,27,15,30,19.20
2016,08,27,15,31,19.20
2016,08,27,15,32,19.30
2016,08,27,15,33,19.30
2016,08,27,15,34,19.30
2016,08,27,15,35,19.30
2016,08,27,15,36,19.30
2016,08,27,15,37,19.40
2016,08,27,15,38,19.40
2016,08,27,15,39,19.40
2016,08,27,15,40,19.40
2016,08,27,15,41,19.40
2016,08,27,15,42,19.50
2016,08,27,15,43,19.60
2016,08,27,15,44,19.70
2016,08,27,15,45,19.70
2016,08,27,15,46,19.70
2016,08,27,15,47,19.70
2016,08,27,15,48,19.80
2016,08,27,15,49,19.90
2016,08,27,15,50,19.90
2016,08,27,15,51,19.90
2016,08,27,15,52,19.90
2016,08,27,15,53,19.90
2016,08,27,15,54,19.90
2016,08,27,15,55,19.80
2016,08,27,15,56,19.80
2016,08,27,15,57,19.60
2016,08,27,15,58,19.50
2016,08,27,15,59,19.50
2016,08,27,16,00,19.40
2016,08,27,16,01,19.40
2016,08,27,16,02,19.40
2016,08,27,16,03,19.40
2016,08,27,16,04,19.40
2016,08,27,16,05,19.40
2016,08,27,16,06,19.40
2016,08,27,16,07,19.30
2016,08,27,16,08,19.30
2016,08,27,16,09,19.30
2016,08,27,16,10,19.20
2016,08,27,16,11,19.20
2016,08,27,16,12,19.20
2016,08,27,16,13,19.20
2016,08,27,16,14,19.30
2016,08,27,16,15,19.30
2016,08,27,16,16,19.40
2016,08,27,16,17,19.40
2016,08,27,16,18,19.40
2016,08,27,16,19,19.40
2016,08,27,16,20,19.30
2016,08,27,16,21,19.40
2016,08,27,16,22,19.40
2016,08,27,16,23,19.30
2016,08,27,16,24,19.30
2016,08,27,16,25,19.30
2016,08,27,16,26,19.20
2016,08,27,16,27,19.20
2016,08,27,16,28,19.20
2016,08,27,16,29,19.20
2016,08,27,16,30,19.20
2016,08,27,16,31,19.10
2016,08,27,16,32,19.00
2016,08,27,16,33,19.00
2016,08,27,16,34,19.10
2016,08,27,16,35,19.10
2016,08,27,16,36,19.20
2016,08,27,16,37,19.20
2016,08,27,16,38,19.20
2016,08,27,16,39,19.20
2016,08,27,16,40,19.20
2016,08,27,16,41,19.30
2016,08,27,16,42,19.30
2016,08,27,16,43,19.40
2016,08,27,16,44,19.40
2016,08,27,16,45,19.40
2016,08,27,16,46,19.40
2016,08,27,16,47,19.30
2016,08,27,16,48,19.30
2016,08,27,16,49,19.20
2016,08,27,16,50,19.20
2016,08,27,16,51,19.20
2016,08,27,16,52,19.20
2016,08,27,16,53,19.20
2016,08,27,16,54,19.30
2016,08,27,16,55,19.40
2016,08,27,16,56,19.40
2016,08,27,16,57,19.40
2016,08,27,16,58,19.30
2016,08,27,16,59,19.20
2016,08,27,17,00,19.20
2016,08,27,17,01,19.10
2016,08,27,17,02,18.90
2016,08,27,17,03,18.80
2016,08,27,17,04,18.80
2016,08,27,17,05,18.80
2016,08,27,17,06,18.90
2016,08,27,17,07,18.90
2016,08,27,17,08,18.90
2016,08,27,17,09,18.90
2016,08,27,17,10,18.90
2016,08,27,17,11,18.90
2016,08,27,17,12,18.80
2016,08,27,17,13,18.80
2016,08,27,17,14,18.90
2016,08,27,17,15,19.00
2016,08,27,17,16,19.00
2016,08,27,17,17,19.00
2016,08,27,17,18,19.00
2016,08,27,17,19,19.00
2016,08,27,17,20,19.00
2016,08,27,17,21,18.90
2016,08,27,17,22,18.80
2016,08,27,17,23,18.80
2016,08,27,17,24,18.80
2016,08,27,17,25,18.80
2016,08,27,17,26,18.80
2016,08,27,17,27,18.70
2016,08,27,17,28,18.60
2016,08,27,17,29,18.50
2016,08,27,17,30,18.50
2016,08,27,17,31,18.50
2016,08,27,17,32,18.60
2016,08,27,17,33,18.60
2016,08,27,17,34,18.50
2016,08,27,17,35,18.50
2016,08,27,17,36,18.50
2016,08,27,17,37,18.50
2016,08,27,17,38,18.50
2016,08,27,17,39,18.60
2016,08,27,17,40,18.60
2016,08,27,17,41,18.60
2016,08,27,17,42,18.50
2016,08,27,17,43,18.40
2016,08,27,17,44,18.40
2016,08,27,17,45,18.40
2016,08,27,17,46,18.40
2016,08,27,17,47,18.40
2016,08,27,17,48,18.40
2016,08,27,17,49,18.30
2016,08,27,17,50,18.20
2016,08,27,17,51,18.20
2016,08,27,17,52,18.20
2016,08,27,17,53,18.10
2016,08,27,17,54,18.10
2016,08,27,17,55,18.00
2016,08,27,17,56,18.10
2016,08,27,17,57,18.10
2016,08,27,17,58,18.10
2016,08,27,17,59,18.10
2016,08,27,18,00,18.10
2016,08,27,18,01,18.10
2016,08,27,18,02,18.10
2016,08,27,18,03,18.10
2016,08,27,18,04,18.10
2016,08,27,18,05,18.10
2016,08,27,18,06,18.10
2016,08,27,18,07,18.20
2016,08,27,18,08,18.20
2016,08,27,18,09,18.20
2016,08,27,18,10,18.20
2016,08,27,18,11,18.30
2016,08,27,18,12,18.30
2016,08,27,18,13,18.30
2016,08,27,18,14,18.30
2016,08,27,18,15,18.40
2016,08,27,18,16,18.40
2016,08,27,18,17,18.30
2016,08,27,18,18,18.30
2016,08,27,18,19,18.30
2016,08,27,18,20,18.30
2016,08,27,18,21,18.30
2016,08,27,18,22,18.20
2016,08,27,18,23,18.20
2016,08,27,18,24,18.20
2016,08,27,18,25,18.20
2016,08,27,18,26,18.10
2016,08,27,18,27,18.10
2016,08,27,18,28,18.10
2016,08,27,18,29,18.10
2016,08,27,18,30,18.10
2016,08,27,18,31,18.10
2016,08,27,18,32,18.10
2016,08,27,18,33,18.10
2016,08,27,18,34,18.10
2016,08,27,18,35,18.10
2016,08,27,18,36,18.10
2016,08,27,18,37,18.10
2016,08,27,18,38,18.10
2016,08,27,18,39,18.20
2016,08,27,18,40,18.30
2016,08,27,18,41,18.30
2016,08,27,18,42,18.30
2016,08,27,18,43,18.30